Location: Recife
(8.0585°S, 34.8848°W)
Time: 08:13:03
(UTC-03:00)

Courier 1B - Pass Details

Date: 18 April 2026
Orbit: 962 x 1209 km, 28.3° (Epoch: 13 May)

Event Time Altitude Azimuth Distance (km) Brightness Sun altitude
Rises 10:19:29 0° 229° (SW) 4,112 10.5 65.9°
Reaches altitude 10° 10:23:27 10° 211° (SSW) 3,134 10.0 66.5°
Maximum altitude 10:28:37 19° 169° (S) 2,504 9.7 67.2°
Drops below altitude 10° 10:33:40 10° 127° (SE) 3,050 10.2 67.9°
Sets 10:37:26 0° 110° (ESE) 3,965 10.7 68.4°
